Regional Weather Roundup
Issued by NWS

Home | Current Version | Previous Version | Graphics & Text | Print | Product List | Glossary Off
Versions: 1 2 3 4 5 6 7 8 9 10 11 12 13 14 15 16 17 18 19 20 21 22 23 24 25 26 27 28 29 30 31 32 33 34 35 36 37 38 39 40 41 42 43 44 45 46 47 48 49 50

000
ASUS43 KMKX 200159
RWRWI

WISCONSIN REGIONAL WEATHER ROUNDUP
NATIONAL WEATHER SERVICE MILWAUKEE/SULLIVAN WI
800 PM CST SUN NOV 19 2017

NOTE: "FAIR" INDICATES FEW OR NO CLOUDS BELOW 12,000 FEET WITH NO
SIGNIFICANT WEATHER AND/OR OBSTRUCTIONS TO VISIBILITY.

WIZ001-002-006>008-014>016-023>028-200300-
NORTHWEST WISCONSIN

CITY           SKY/WX    TMP DP  RH WIND       PRES   REMARKS
SUPERIOR ARPT  PTCLDY    19  17  90 CALM      29.83F
ASHLAND        PTCLDY    19  16  88 CALM      29.86F
HAYWARD        CLOUDY    26  16  65 SW6       29.83F WCI  19
SIREN          CLEAR     27  19  70 SE5       29.83F WCI  22
CUMBERLAND     CLEAR     27  18  69 CALM      29.84F
RICE LAKE      CLEAR     26  18  69 SE5       29.86F WCI  21
CHETEK         CLEAR     25  18  73 E5        29.86F WCI  20
LADYSMITH      PTCLDY    26  18  69 SE3       29.87F
EAU CLAIRE     NOT AVBL
MENOMONIE      CLEAR     25  19  76 E5        29.87F WCI  20
NEW RICHMOND   CLEAR     28  21  75 S5        29.84F WCI  23
OSCEOLA        CLEAR     25  21  83 CALM      29.87F
$$

WIZ003>005-009-010-017-018-200300-
NORTH CENTRAL WISCONSIN

CITY           SKY/WX    TMP DP  RH WIND       PRES   REMARKS
MANITOWISH WTR CLOUDY    19  17  92 S5        29.83F WCI  13
ARBOR VITAE    CLOUDY    24  17  73 CALM      29.84S
WOODRUFF       CLOUDY    24  17  73 CALM      29.84S
RHINELANDER    CLOUDY   N/A N/A N/A W3        29.85F
EAGLE RIVER    CLOUDY    20  16  82 CALM      29.83F
LAND O LAKES   CLOUDY    20  18  89 CALM      29.85S
PHILLIPS       CLEAR     24  15  70 S3        29.83F
TOMAHAWK       PTCLDY    22  15  73 CALM      29.86F
MEDFORD        CLOUDY    22  16  79 S3        29.86F
MERRILL        CLOUDY    26  16  67 SW3       29.87F
$$

WIZ029-030-035-036-043>047-200300-
CENTRAL WISCONSIN

CITY           SKY/WX    TMP DP  RH WIND       PRES   REMARKS
WAUSAU         CLOUDY    26  15  63 SW3       29.87F
MOSINEE        MOCLDY    23  16  74 S5        29.89F WCI  17
MARSHFIELD     CLOUDY    24  14  65 SW5       29.87F WCI  18
STEVENS POINT  CLOUDY    24  14  63 S3        29.91F
WAUPACA        CLEAR     28  17  63 SW3       29.94F
WAUTOMA        CLEAR     26  16  65 S6        29.94F WCI  19
WISC RAPIDS    CLOUDY    26  16  65 SW3       29.92F
CAMP DOUGLAS   CLEAR    N/A N/A N/A SW8       29.93F
$$

WIZ011>013-019>022-031-037>040-048>050-200300-
NORTHEAST WISCONSIN

CITY           SKY/WX    TMP DP  RH WIND       PRES   REMARKS
ANTIGO         CLOUDY    25  16  68 W7        29.87S WCI  17
SHAWANO        CLOUDY    31  16  53 SW3       29.91F
OCONTO         CLOUDY    27  13  55 SW3       29.92F
STURGEON BAY   CLOUDY    30  16  56 W8        29.92F WCI  22
GREEN BAY      CLOUDY    30  19  63 SW8       29.93F WCI  22
MANITOWOC      CLOUDY    29  18  63 SW3       29.96S
APPLETON       MOCLDY    28  14  54 SW9       29.92F WCI  20
CLINTONVILLE   CLOUDY    28  16  59 SW7       29.92F WCI  21
OSHKOSH        PTCLDY    28  18  66 SW8       29.94F WCI  20
$$

WIZ032>034-041-042-053>061-200300-
SOUTHWEST WISCONSIN

CITY           SKY/WX    TMP DP  RH WIND       PRES   REMARKS
LA CROSSE      CLEAR     34  24  67 E9        29.93F WCI  27
SPARTA         CLEAR     31  21  68 S3        29.94F
VIROQUA        CLEAR     29  23  77 S8        29.93F WCI  21
BOSCOBEL       CLEAR     27  19  72 CALM      30.00S
PRAIRIE DU CHI CLEAR     33  21  60 SE3       29.99F
PLATTEVILLE    CLEAR     28  23  79 S9        30.00F WCI  20
$$

WIZ056-057-062-063-064-067-068-200300-
SOUTH CENTRAL WISCONSIN

CITY           SKY/WX    TMP DP  RH WIND       PRES   REMARKS
REEDSBURG      CLEAR     29  19  64 SW9       29.96F WCI  21
BARABOO/DELLS  CLEAR     29  19  66 SW9       29.96F WCI  20
LONE ROCK      CLEAR     22  18  85 SE3       30.00S
MINERAL POINT  CLEAR     30  23  74 S8        29.98S WCI  23
MADISON        CLEAR     31  20  63 SW8       29.99S WCI  23
MIDDLETON      CLEAR     30  20  67 SW9       29.99F WCI  22
WATERTOWN      CLEAR     28  20  73 SW7       29.99S WCI  20
MONROE         CLEAR     28  19  69 SW14      29.99F WCI  17
JANESVILLE     CLEAR     27  19  74 W6        30.01F WCI  20
$$

WIZ051-052-058>065-066-070>072-200300-
SOUTHEAST WISCONSIN

CITY           SKY/WX    TMP DP  RH WIND       PRES   REMARKS
MILWAUKEE      CLEAR     31  19  61 SW10      30.01R WCI  22
WAUKESHA       CLEAR     27  18  69 SW8       30.01R WCI  18
MILWAUKEE/TIMM CLEAR     28  16  59 SW9       30.01S WCI  20
RACINE         CLEAR     30  19  63 W10       30.03R WCI  21
BURLINGTON     CLEAR     30  25  80 SW8       30.02S WCI  22
KENOSHA        CLEAR     29  19  66 W14       30.03R WCI  18
FOND DU LAC    CLEAR     27  17  66 SW8       29.96F WCI  19
SHEBOYGAN      CLOUDY    27  19  72 SW5       29.96F WCI  22
WEST BEND      CLEAR     28  18  64 SW7       29.97S WCI  21
JUNEAU         CLEAR     26  19  73 SW9       29.98F WCI  17
$$

LSZ147-162-200300-
LAKE SUPERIOR

STATION/POSITION TIME  TEMP    WIND        PRES    WAVE
                       AIR SEA DIR/SP/G            HT/PER
                 (UTC) (F)     (DEG/KT/KT) (MB)    (FT/S)
DEVILS ISLAND    0100   29     230/ 13/ 16 1012.2F
SAXON HARBOR     0140   23      CALM  /  2 1011.2F
$$

LMZ867-665-643>646-200300-
LAKE MICHIGAN

STATION/POSITION TIME  TEMP    WIND        PRES    WAVE
                       AIR SEA DIR/SP/G            HT/PER
                 (UTC) (F)     (DEG/KT/KT) (MB)    (FT/S)
N MID LAKE BUOY  0050   31 48  260/ 16/ 19 1013.5S   3/ 4
NORTHPORT PIER   0140   30     280/  3/  9 1012.9S
KEWAUNEE LAKESHO 0130   29     230/  4/  6 1013.2F
SHEBOYGAN LAKESH 0100   30     220/  8/ 10 1015.8S
PORT WASHINGTON  0140   29     250/  6/  9 1016.3F
MILWAUKEE LAKESH 0130   32     250/ 10/ 12   N/A
S MID LAKE BUOY  0050   36 49  300/ 21/ 25 1017.0R   5/ 5
KENOSHA   LAKESH 0100   32     250/ 10/ 15 1016.6
$$

TC  - TEMPERATURE IN CELSIUS
VSB - VISIBILITY IN STATUTE MILES
WCI - WIND CHILL INDEX
HX  - HEAT INDEX





USA.gov is the U.S. government's official web portal to all federal, state and local government web resources and services.